Theta_e
300 300 302 302 302 302 303 303 303 303 303 303 308 314 315 315 313 311 314 316 318 321 321 321 321 321 322 322 324 325 324 325 323 324 322 322 324 330 330 333 334 337 337 337 336 338 338 334 333 331 335 334 335 337
301 301 301 301 302 302 303 303 303 303 303 303 307 314 315 314 311 311 314 316 318 319 319 318 318 318 318 320 321 322 324 325 324 326 325 326 331 331 332 336 333 333 334 335 334 336 333 333 334 334 333 335 337 338
300 300 301 301 302 302 303 303 303 303 303 303 308 313 314 313 310 312 314 316 317 317 318 318 319 318 318 319 319 320 320 322 326 324 325 324 329 330 331 333 333 331 331 332 331 333 331 333 336 335 335 335 337 337
301 301 301 302 302 302 302 303 303 303 303 303 308 313 314 310 311 313 314 316 317 317 319 320 320 320 320 320 319 319 319 319 321 320 322 323 324 322 323 328 329 329 330 330 332 331 332 331 333 335 335 335 335 336
301 300 301 302 302 301 302 303 303 303 303 303 309 312 312 310 313 314 314 315 316 317 318 318 316 318 320 317 318 319 319 321 320 321 322 322 320 320 321 322 326 328 331 330 330 329 331 335 334 333 334 333 333 333
300 301 301 301 301 301 303 303 303 303 302 304 310 312 309 311 314 314 315 316 314 316 317 318 319 320 319 318 317 316 320 320 320 321 321 321 321 322 322 324 328 327 327 326 328 330 336 334 328 329 332 332 332 331
301 301 301 301 301 302 303 303 303 303 303 306 311 310 308 313 314 315 317 314 315 315 317 320 322 320 320 318 318 317 318 318 319 320 321 320 320 320 321 322 324 324 327 329 328 328 328 333 332 327 330 330 331 328
301 301 301 301 301 302 303 303 303 303 305 310 309 307 309 312 313 314 314 313 313 315 317 319 322 323 318 319 319 317 318 318 320 320 320 321 320 320 324 329 331 329 330 331 330 327 329 329 327 326 327 326 328 328
301 302 302 302 302 303 302 303 303 304 310 308 307 309 311 311 312 314 314 314 313 316 319 319 322 326 320 319 320 320 321 322 321 321 320 321 321 331 328 331 331 333 332 332 328 327 328 328 328 327 326 326 324 323
302 302 302 302 302 303 302 302 303 309 308 308 311 313 314 313 313 315 313 316 315 317 316 318 318 323 323 322 321 325 322 322 323 322 321 321 328 325 324 327 328 330 331 332 328 328 329 326 324 322 325 324 326 326
302 302 302 302 303 302 302 303 308 306 309 311 313 316 314 314 314 315 318 318 318 320 318 317 317 318 320 323 326 324 328 327 328 331 329 331 331 326 326 328 328 330 331 330 325 325 325 326 324 325 326 328 328 328
302 302 302 303 303 302 302 305 305 309 310 311 313 314 314 315 317 318 320 319 318 319 320 319 319 318 323 326 326 326 328 327 328 327 328 330 328 325 326 328 329 331 330 324 323 326 327 326 323 325 326 327 328 328
302 303 303 303 302 302 303 305 307 310 309 312 314 316 318 317 318 318 319 318 319 321 323 322 320 321 326 323 324 327 327 330 327 330 330 326 322 326 328 328 329 328 329 329 329 329 321 323 324 324 324 329 325 327
303 303 303 302 302 302 305 305 307 310 312 316 316 314 317 318 317 316 317 319 321 322 323 322 323 322 323 323 322 324 329 328 329 330 328 323 326 329 328 326 327 328 327 328 329 328 326 323 322 324 324 322 325 325
302 302 303 302 302 306 305 303 306 310 314 316 316 315 317 317 317 316 320 323 322 322 320 323 325 325 323 323 323 324 326 327 328 331 330 327 327 328 328 327 326 326 326 326 326 326 328 328 326 326 324 322 326 326
303 302 304 304 306 307 305 305 309 310 311 314 317 318 316 317 317 317 317 319 320 319 321 322 324 325 323 323 322 324 325 329 330 327 324 324 326 327 327 327 327 325 326 325 325 325 326 326 327 327 328 328 326 326
304 306 306 307 307 305 307 309 307 310 311 315 315 317 318 319 320 321 319 319 322 323 325 326 325 321 325 324 327 327 330 328 327 324 321 322 324 325 326 325 325 324 324 323 323 326 326 325 324 325 325 327 325 325
306 306 306 304 307 308 308 308 310 312 315 315 317 317 317 318 319 320 321 321 323 325 325 327 327 325 326 326 329 327 326 324 323 324 324 324 326 327 326 326 322 322 323 324 324 325 325 324 325 324 324 324 324 322
305 305 307 306 307 307 308 308 309 316 314 315 314 315 316 318 316 317 319 321 321 322 323 324 324 326 325 324 323 323 324 323 324 324 324 327 322 320 322 320 323 324 324 324 325 325 324 322 321 322 322 322 323 323
305 305 306 307 309 311 312 313 312 314 315 316 315 317 316 317 317 317 318 318 319 321 320 321 320 320 320 320 320 319 319 319 318 319 318 316 315 316 320 323 323 323 323 323 323 323 323 322 318 318 319 319 321 321
305 306 307 308 308 308 313 313 313 314 316 315 317 316 317 316 317 317 316 316 319 320 317 318 318 320 321 320 318 317 319 319 319 319 318 316 317 320 320 321 318 317 320 321 321 321 321 321 320 320 319 320 318 319
307 307 308 307 310 311 313 312 316 316 318 315 315 316 316 316 316 316 316 316 317 318 319 319 321 321 320 321 320 319 318 318 318 319 320 320 321 321 320 319 317 316 317 318 318 318 316 318 318 315 315 318 320 320
307 308 309 307 309 309 312 313 315 316 314 314 315 314 315 316 317 316 319 321 322 322 323 323 324 322 324 321 320 321 321 320 321 320 320 319 319 319 319 318 315 315 315 315 315 317 317 318 318 317 316 316 319 319
306 308 309 309 310 310 314 314 314 315 314 315 315 316 318 319 318 319 320 321 322 321 322 322 322 323 322 322 322 322 321 320 320 319 319 320 320 319 317 316 316 315 315 315 315 315 315 314 316 317 316 316 317 318
305 306 307 304 311 312 312 312 313 313 312 315 317 317 316 317 319 318 319 317 318 320 321 321 322 323 323 323 322 321 320 319 320 320 316 314 314 316 317 315 314 312 313 311 310 310 309 308 308 310 315 314 314 315
305 309 310 313 312 312 313 312 313 315 316 315 314 313 313 314 315 315 315 314 314 317 318 319 320 321 321 322 323 322 320 317 317 318 315 314 313 315 315 312 311 310 310 309 309 309 307 307 308 308 309 310 310 311
308 310 310 310 311 312 313 313 313 313 313 313 312 313 311 313 316 316 315 315 317 317 317 316 316 318 317 319 319 316 315 316 318 316 314 314 315 310 310 310 309 308 309 308 307 307 306 307 307 308 309 308 307 307
307 308 309 307 310 311 311 313 313 313 312 312 314 315 315 316 316 316 315 315 315 316 316 315 313 314 313 312 311 310 309 309 310 313 315 312 309 308 308 308 307 307 307 306 307 306 306 307 307 306 306 305 305 303
307 307 308 309 310 310 313 314 314 314 313 314 316 316 316 315 315 315 315 314 315 314 313 312 311 311 311 310 309 308 307 306 307 308 309 308 307 306 306 307 307 307 307 306 305 305 305 304 303 303 303 302 301 302
309 306 309 310 312 315 315 314 317 315 316 315 314 315 314 313 311 311 311 311 311 311 311 311 310 310 310 309 309 308 306 305 305 304 305 305 305 305 306 307 307 307 307 305 304 304 304 303 303 302 301 300 300 300
314 312 316 317 318 317 316 316 316 316 315 314 314 314 313 313 310 310 310 310 310 310 311 311 310 309 309 309 309 308 307 305 304 303 302 303 303 302 303 304 304 304 304 304 303 303 303 301 301 301 301 300 300 300
317 317 317 317 317 316 316 315 315 316 315 316 315 315 315 316 314 311 309 309 310 310 310 310 310 309 308 308 308 306 306 304 303 302 301 300 300 301 301 302 302 303 303 302 302 302 302 301 301 300 300 299 300 299
318 318 317 317 316 316 316 315 315 315 315 315 315 315 314 314 313 312 311 310 309 309 310 310 309 309 308 307 307 306 304 303 303 302 301 300 300 300 300 300 301 301 301 301 302 302 301 301 300 299 299 299 298 299
Wind_Speed
23 22 22 21 21 20 19 18 19 19 22 22 15 14 15 15 13 13 11 10 13 5 14 16 17 13 11 7 6 6 6 5 3 2 4 6 6 4 5 1 3 4 3 1 1 4 4 4 2 2 3 4 7 9
23 23 22 21 20 20 20 18 18 19 20 21 17 14 15 15 13 12 7 9 12 9 12 33 31 29 24 18 6 4 5 5 3 3 4 4 3 3 5 4 5 1 4 3 6 4 6 6 7 3 3 2 4 5
25 23 22 21 20 19 18 17 16 18 19 19 16 14 16 14 14 15 14 13 13 6 12 14 13 30 27 29 23 5 4 3 2 1 3 2 5 2 3 4 7 3 2 2 3 1 4 3 5 4 1 3 1 3
23 21 21 21 19 18 18 18 17 17 18 17 15 14 15 13 14 14 13 9 8 5 4 5 15 13 17 16 32 22 11 13 3 2 3 3 3 5 5 3 4 2 1 2 2 8 5 4 5 3 5 2 4 5
21 20 20 19 18 17 18 17 16 16 16 16 14 13 14 14 12 13 13 16 14 5 4 8 27 27 15 10 10 12 5 1 2 3 3 5 4 5 5 3 3 2 2 1 3 5 5 3 5 2 3 0 2 8
18 18 19 18 17 16 16 16 15 14 16 16 12 15 14 14 12 6 2 10 12 10 3 4 7 10 7 10 6 2 3 4 3 3 4 5 7 4 4 4 4 3 4 4 4 3 6 7 1 2 3 2 10 7
18 17 17 17 15 15 15 14 13 13 15 14 12 15 15 14 20 5 1 1 3 4 2 4 4 6 13 9 4 3 7 2 3 3 4 5 8 4 3 5 7 4 8 10 6 7 13 6 1 1 9 11 12 3
19 17 16 15 14 14 13 12 12 12 11 10 15 16 13 10 7 11 10 5 6 3 3 4 5 3 9 3 3 5 4 5 4 5 4 4 7 3 3 8 8 7 8 6 5 7 10 5 8 12 15 13 11 7
18 17 16 14 14 12 12 11 11 10 13 17 17 16 10 4 3 5 5 7 9 4 3 3 4 3 3 6 4 4 4 4 4 6 8 4 5 2 4 7 8 11 8 8 6 7 5 7 7 7 8 8 5 12
16 16 14 14 12 11 10 9 9 13 23 23 18 6 3 8 9 8 4 2 4 4 4 4 4 5 3 2 3 3 3 4 2 4 4 7 3 4 6 4 5 8 15 14 5 3 2 1 3 3 2 2 7 12
16 15 14 13 12 11 10 8 16 26 26 7 5 3 4 16 8 4 3 4 5 4 5 5 9 6 3 3 3 2 2 3 1 3 2 3 1 3 3 8 12 6 14 11 12 11 7 7 4 3 2 6 9 12
14 14 13 13 12 13 12 14 31 22 12 8 4 5 9 5 3 4 4 4 6 5 4 6 6 8 4 2 1 1 3 1 1 2 2 2 3 6 6 10 8 7 13 9 8 5 8 8 6 4 6 9 17 24
14 13 13 13 14 13 13 30 35 12 12 4 5 5 3 3 2 5 7 4 4 4 1 4 5 5 2 2 3 3 4 1 3 2 2 3 5 8 6 6 9 10 13 9 1 13 18 4 1 11 5 2 5 14
14 13 13 15 13 14 19 35 28 4 5 2 4 2 5 5 6 6 8 4 3 3 2 2 1 1 3 2 2 2 4 5 3 3 2 3 6 2 6 7 8 9 9 11 13 8 11 6 7 8 4 11 4 18
14 14 14 12 15 19 26 30 27 7 3 2 2 3 7 8 7 6 4 2 4 2 6 1 2 2 2 2 4 2 5 4 2 3 3 2 3 4 4 5 5 5 4 5 7 7 10 7 9 12 18 15 18 26
16 13 9 15 19 22 27 23 12 2 4 2 4 5 1 6 4 3 5 4 8 8 7 5 4 3 2 3 2 3 4 4 2 3 2 3 1 1 2 4 6 7 8 7 6 8 12 12 10 10 13 12 18 8
14 3 15 22 27 25 22 6 3 3 3 4 4 1 7 8 6 6 6 5 2 3 3 2 2 5 4 3 3 3 4 3 6 5 5 5 6 4 3 3 4 5 4 7 12 9 10 13 14 14 8 15 18 14
8 24 25 31 33 20 5 2 2 5 7 5 3 5 7 6 4 3 2 3 4 3 3 4 3 2 5 3 2 3 3 4 3 4 8 9 7 2 6 5 8 5 8 12 14 11 12 15 8 6 11 13 12 14
28 31 31 32 18 5 3 2 4 3 1 2 3 2 1 1 4 6 5 1 2 2 2 2 5 2 2 1 3 4 2 1 2 4 3 6 7 4 7 13 11 13 16 18 17 11 13 8 8 5 2 6 7 11
32 28 33 24 11 3 5 3 3 4 3 2 4 3 4 1 3 3 3 4 4 3 1 4 6 6 5 2 3 4 4 4 4 4 5 6 13 14 14 16 15 17 17 19 19 17 11 10 11 12 10 7 8 10
24 23 16 8 3 6 2 2 3 1 4 3 4 2 2 1 2 2 5 3 2 3 8 6 7 4 3 2 9 8 4 5 3 3 4 4 9 13 13 15 18 20 14 15 12 14 17 12 13 16 21 16 4 7
13 24 6 11 3 2 2 2 3 2 2 1 1 3 1 1 5 4 4 2 5 6 6 5 3 3 3 4 5 8 7 8 11 11 11 12 6 5 7 10 11 6 11 14 14 11 10 8 10 20 27 20 12 9
12 5 4 2 3 2 2 3 2 3 1 2 2 1 2 3 3 3 2 4 5 8 10 9 12 17 7 5 12 14 9 12 6 11 11 11 12 12 11 8 8 7 8 12 11 12 16 14 9 9 6 18 7 1
4 3 3 1 3 1 3 2 2 2 2 2 1 4 4 5 4 3 3 3 5 9 8 10 11 5 8 11 4 9 12 12 13 15 16 14 9 12 9 6 5 2 4 10 14 12 11 14 6 2 9 14 14 12
2 5 2 4 2 3 3 4 3 3 2 5 8 5 5 4 4 4 4 5 6 6 8 12 8 4 5 4 6 11 12 12 10 5 9 13 11 10 5 4 9 18 12 15 18 16 19 23 22 18 7 9 9 11
3 2 4 5 4 3 3 3 3 7 7 4 6 3 3 3 4 3 3 3 2 2 4 4 3 4 2 2 2 3 6 7 7 4 1 5 9 6 6 7 6 14 17 19 18 16 18 18 17 18 18 17 19 19
3 3 3 4 5 2 4 5 6 5 4 3 2 2 2 3 2 2 3 4 3 7 11 15 16 10 2 3 3 11 11 5 2 4 2 2 9 17 14 10 8 12 13 13 14 15 15 15 16 16 17 24 26 25
3 4 3 2 4 4 2 2 3 2 3 2 2 2 2 2 2 2 3 6 7 10 12 9 15 13 13 18 21 23 24 24 24 14 4 11 19 22 21 18 17 17 15 12 15 17 16 18 21 22 21 22 20 23
2 2 2 6 3 1 0 1 1 2 5 4 5 4 3 2 3 5 8 11 6 3 8 14 15 16 18 19 22 22 21 22 19 14 14 9 12 18 19 17 15 14 14 8 21 23 20 23 22 22 20 20 20 18
4 4 3 4 3 3 3 5 7 7 5 8 6 6 5 5 14 15 18 15 14 13 13 16 15 15 12 13 13 18 19 18 16 12 7 7 12 16 19 19 18 16 17 19 19 17 16 17 18 17 16 15 16 14
8 6 8 10 10 6 4 6 9 7 7 7 7 7 7 7 15 18 17 16 13 13 14 13 14 15 15 14 11 9 11 15 15 15 14 11 13 16 17 17 18 18 17 16 14 13 13 13 10 12 14 15 14 14
9 12 10 14 9 7 8 9 8 8 5 4 4 2 0 2 8 8 13 14 14 13 13 13 11 12 13 14 14 11 13 11 12 13 14 12 12 15 16 17 15 13 12 10 9 8 10 12 15 16 14 13 12 10
7 8 6 5 6 6 6 6 8 8 7 7 5 3 5 6 6 6 13 13 14 14 16 11 10 12 13 13 13 6 9 11 14 17 16 13 12 11 12 16 17 16 16 15 14 13 13 12 12 11 9 9 11 13
Wind_Direction
274 274 270 274 273 274 274 277 280 282 297 297 269 257 251 244 233 228 256 277 254 283 285 286 288 307 308 297 268 340 332 356 290 270 251 256 265 307 339 32 119 152 214 342 307 220 229 174 234 15 213 242 230 247
271 269 268 270 272 271 272 273 276 278 287 298 264 250 243 238 223 220 267 267 264 253 276 297 286 276 274 281 301 313 287 322 303 326 6 346 324 10 18 317 318 163 163 183 163 228 255 186 195 203 272 286 334 336
267 266 264 268 267 271 273 272 274 276 282 295 253 254 235 224 212 215 253 296 323 278 277 254 254 257 245 242 248 255 270 270 18 22 294 273 278 216 282 187 250 288 296 227 27 257 334 32 174 168 69 201 331 43
262 261 263 263 263 269 270 271 271 270 279 285 263 238 230 211 205 217 234 273 311 302 278 290 2 323 239 237 218 235 250 288 299 340 298 274 309 274 301 203 200 170 69 225 249 276 270 308 96 57 332 189 69 104
257 258 259 254 259 266 269 267 269 266 280 275 264 228 210 201 203 212 238 257 265 261 309 307 309 286 266 233 236 218 227 260 291 266 252 263 244 257 274 319 308 69 232 131 228 271 231 173 128 34 293 189 70 118
251 255 251 252 258 263 267 267 260 261 283 260 249 216 196 188 181 162 268 240 232 249 274 284 331 284 264 169 188 228 237 182 221 230 248 249 273 290 278 280 230 217 195 210 255 310 119 115 194 177 145 359 333 151
250 250 250 247 254 262 261 255 255 263 273 245 223 192 182 192 178 195 258 31 157 155 250 276 266 206 201 177 180 192 220 227 189 235 246 272 283 298 295 269 260 56 9 62 63 67 21 285 254 319 32 359 340 173
248 244 246 248 256 258 253 249 246 264 236 225 180 163 171 181 216 241 257 272 177 238 274 274 264 210 167 172 217 193 180 189 223 226 257 233 259 246 252 339 23 24 329 90 97 112 182 82 65 46 43 13 6 332
242 241 241 246 248 245 239 240 254 239 192 158 149 151 149 157 196 227 235 215 215 265 289 268 291 250 165 226 218 185 184 190 220 208 233 235 244 67 280 316 356 340 325 301 113 92 77 102 126 97 85 65 29 293
235 233 233 239 235 227 228 231 231 183 162 154 147 180 179 196 193 169 153 206 201 216 216 250 272 279 332 282 226 193 157 218 252 210 262 210 87 208 234 262 289 330 309 297 144 103 145 74 324 65 120 354 225 278
227 224 223 220 213 213 204 213 179 154 155 182 174 198 128 144 162 197 215 210 188 226 210 225 216 253 279 255 231 64 356 0 306 4 71 312 309 261 1 306 296 276 300 305 141 162 174 175 179 351 288 233 276 276
208 205 204 202 199 188 189 185 160 164 168 171 128 133 156 197 210 219 202 219 214 228 225 196 192 198 248 324 42 43 77 229 105 317 195 334 306 331 307 277 296 345 360 99 109 97 21 14 37 103 291 270 177 231
191 192 191 190 185 189 189 172 170 168 185 177 199 187 179 160 195 210 203 209 210 233 305 181 203 195 168 219 255 158 153 217 101 32 62 246 292 291 295 0 3 0 6 17 82 91 77 298 47 32 21 14 307 229
184 182 183 179 187 188 180 176 169 165 273 219 161 135 206 198 221 223 237 229 241 332 294 204 273 233 192 162 264 269 50 141 151 129 216 237 250 353 27 21 6 0 360 3 360 116 184 153 150 230 211 64 330 276
174 174 174 183 183 175 176 182 194 233 297 267 216 221 214 248 270 190 73 34 338 307 336 50 335 298 215 217 191 222 211 86 334 64 97 143 49 44 16 357 358 346 2 352 353 346 343 54 200 217 216 205 217 250
152 145 179 170 164 166 170 180 193 307 308 267 247 268 205 255 213 194 95 111 225 254 247 142 242 33 296 262 257 9 12 61 76 93 259 273 319 329 341 352 2 5 350 343 337 331 330 340 336 341 337 9 8 5
146 101 155 152 154 154 149 147 51 44 327 262 250 296 330 22 45 20 46 326 273 21 79 44 19 245 247 260 66 33 37 120 123 172 206 223 250 265 296 263 262 272 306 317 312 326 322 317 321 325 326 352 359 350
114 142 142 146 146 121 134 138 128 210 238 257 217 55 40 39 352 344 237 324 27 20 51 198 249 6 20 35 39 70 54 34 37 171 219 220 216 234 293 295 307 315 331 335 330 323 323 323 310 29 32 5 5 355
136 145 141 140 136 106 105 228 222 265 231 316 82 56 131 20 250 234 222 279 11 309 310 2 69 52 49 268 28 53 8 6 326 339 50 90 40 5 356 345 0 22 13 353 336 324 313 70 63 44 26 58 48 18
131 138 141 133 162 200 184 225 214 279 330 349 240 117 71 47 318 331 348 32 355 306 36 61 59 67 88 55 17 16 356 353 353 358 4 2 353 5 22 35 19 17 21 4 2 18 35 88 44 32 22 13 72 49
132 151 160 181 284 220 280 187 264 287 314 320 303 83 103 225 261 3 39 349 305 41 73 65 65 51 83 69 59 15 9 24 351 327 300 326 360 41 40 44 40 29 24 14 9 26 26 34 35 19 354 340 25 68
152 163 195 217 268 81 336 289 293 301 272 339 332 312 159 78 68 15 330 350 43 39 35 52 52 1 350 29 15 341 333 339 334 337 49 54 35 26 41 50 54 39 42 21 358 352 360 3 41 44 11 335 295 344
158 219 253 34 84 78 283 269 282 322 187 47 298 53 63 55 34 324 16 42 36 12 17 15 13 5 309 339 15 6 355 21 57 53 48 49 43 24 55 51 58 64 58 19 5 341 312 335 323 355 337 306 326 239
282 313 339 212 136 141 171 235 251 260 132 232 206 69 44 6 8 67 64 54 11 8 11 6 3 12 43 46 51 43 42 65 69 53 32 34 22 360 24 29 54 40 315 321 339 339 358 33 54 142 53 22 15 25
59 331 22 320 219 160 154 179 197 185 138 70 65 52 21 353 18 44 40 4 350 354 4 355 4 15 29 22 43 48 57 69 70 69 57 53 344 331 310 10 31 21 29 30 20 24 20 10 359 360 37 38 22 23
72 77 45 349 12 3 16 158 65 41 50 58 56 42 28 34 40 2 332 302 306 299 302 301 323 327 347 119 86 100 111 106 87 80 30 358 22 357 55 47 39 15 28 26 11 23 14 353 353 360 9 29 22 21
66 56 82 6 326 331 75 50 45 48 62 63 67 55 57 63 17 309 266 239 234 275 300 296 289 274 333 150 118 65 38 19 105 97 109 239 350 63 61 64 46 2 16 23 23 25 360 7 6 13 19 50 48 44
55 6 91 26 58 11 72 54 65 69 94 116 144 77 82 115 211 241 247 260 269 292 294 313 17 41 48 62 59 49 35 20 20 22 323 69 52 40 28 21 25 27 29 46 42 31 23 27 39 38 35 34 44 48
108 138 133 112 94 86 27 83 127 142 138 176 133 122 165 212 238 229 246 244 259 290 35 49 21 28 37 75 70 64 53 38 25 19 16 15 19 16 3 7 21 27 10 86 52 48 50 52 51 44 42 36 22 32
190 172 163 171 168 141 162 198 124 144 168 110 117 119 114 69 36 31 32 37 29 19 43 61 32 41 44 26 53 77 71 58 46 32 355 356 7 1 354 5 15 24 41 50 43 36 36 40 39 41 35 38 27 24
147 200 106 97 94 105 157 192 143 131 87 84 87 86 96 88 59 34 25 19 47 37 27 51 56 30 20 27 32 39 77 59 51 37 23 16 16 5 4 6 16 21 27 43 47 34 41 44 35 42 38 36 30 34
108 104 102 101 97 100 91 83 87 92 91 93 85 64 2 91 77 50 42 30 22 18 39 31 56 58 28 24 31 81 92 85 63 44 34 36 30 20 19 21 20 22 26 36 35 25 46 50 49 42 36 24 21 14
112 118 106 84 109 118 113 102 104 99 93 83 64 55 89 86 67 37 19 58 48 15 359 26 44 50 53 29 16 96 109 103 68 55 49 42 32 31 31 36 25 14 14 7 21 30 46 38 62 47 26 14 4 349